Time,TemperatureF,DewpointF,PressureIn,WindDirection,WindDirectionDegrees,WindSpeedMPH,WindSpeedGustMPH,Humidity,HourlyPrecipIn,Conditions,Clouds,dailyrainin,SoftwareType,DateUTC
2013-03-10 00:11:00,3.0,-1.0,-100.00,SE,141,3.0,3.0,84,-99.99,,,-99.99,,2013-03-10 07:11:00,
2013-03-10 00:52:00,0.0,-3.0,-100.00,ESE,123,3.0,3.0,84,-99.99,,,-99.99,,2013-03-10 07:52:00,
2013-03-10 01:01:00,0.0,-3.0,-100.00,ESE,123,3.0,3.0,84,-99.99,,,-99.99,,2013-03-10 08:01:00,
2013-03-10 01:11:00,0.0,-3.0,-100.00,ESE,123,3.0,3.0,84,-99.99,,,-99.99,,2013-03-10 08:11:00,
2013-03-10 03:52:00,-2.0,-7.0,-100.00,ESE,108,3.0,3.0,82,-99.99,,,-99.99,,2013-03-10 09:52:00,
2013-03-10 04:01:00,-2.0,-7.0,-100.00,ESE,108,3.0,3.0,82,-99.99,,,-99.99,,2013-03-10 10:01:00,
2013-03-10 04:11:00,-2.0,-7.0,-100.00,ESE,108,3.0,3.0,82,-99.99,,,-99.99,,2013-03-10 10:11:00,
2013-03-10 05:01:00,-4.0,-8.0,-100.00,SW,236,1.0,2.0,81,-99.99,,,-99.99,,2013-03-10 11:01:00,
2013-03-10 05:11:00,-4.0,-8.0,-100.00,SW,236,1.0,2.0,81,-99.99,,,-99.99,,2013-03-10 11:11:00,
2013-03-10 05:52:00,-5.0,-9.0,-100.00,ESE,114,0.0,3.0,81,-99.99,,,-99.99,,2013-03-10 11:52:00,
2013-03-10 06:01:00,-5.0,-9.0,-100.00,ESE,114,0.0,3.0,81,-99.99,,,-99.99,,2013-03-10 12:01:00,
2013-03-10 06:11:00,-5.0,-9.0,-100.00,ESE,114,0.0,3.0,81,-99.99,,,-99.99,,2013-03-10 12:11:00,
2013-03-10 06:52:00,-4.0,-8.0,-100.00,NE,49,1.0,2.0,81,-99.99,,,-99.99,,2013-03-10 12:52:00,
2013-03-10 07:01:00,-4.0,-8.0,-100.00,NE,49,1.0,2.0,81,-99.99,,,-99.99,,2013-03-10 13:01:00,
2013-03-10 07:11:00,-4.0,-8.0,-100.00,NE,49,1.0,2.0,81,-99.99,,,-99.99,,2013-03-10 13:11:00,
2013-03-10 07:52:00,-6.0,-11.0,-100.00,SW,223,1.0,2.0,79,-99.99,,,-99.99,,2013-03-10 13:52:00,
2013-03-10 08:01:00,-6.0,-11.0,-100.00,SW,223,1.0,2.0,79,-99.99,,,-99.99,,2013-03-10 14:01:00,
2013-03-10 08:11:00,-6.0,-11.0,-100.00,SW,223,1.0,2.0,79,-99.99,,,-99.99,,2013-03-10 14:11:00,
2013-03-10 08:52:00,-6.0,-10.0,-100.00,ESE,121,1.0,1.0,80,-99.99,,,-99.99,,2013-03-10 14:52:00,
2013-03-10 09:01:00,-6.0,-10.0,-100.00,ESE,121,1.0,1.0,80,-99.99,,,-99.99,,2013-03-10 15:01:00,
2013-03-10 09:11:00,-6.0,-10.0,-100.00,ESE,121,1.0,1.0,80,-99.99,,,-99.99,,2013-03-10 15:11:00,
2013-03-10 09:52:00,10.0,5.0,-100.00,WSW,256,4.0,4.0,80,-99.99,,,-99.99,,2013-03-10 15:52:00,
2013-03-10 11:11:00,18.0,11.0,-100.00,NNE,21,1.0,2.0,73,-99.99,,,-99.99,,2013-03-10 17:11:00,
2013-03-10 12:11:00,25.0,16.0,-100.00,North,357,1.0,2.0,67,-99.99,,,-99.99,,2013-03-10 18:11:00,
2013-03-10 12:52:00,36.0,12.0,-100.00,South,180,0.0,2.0,38,-99.99,,,-99.99,,2013-03-10 18:52:00,
2013-03-10 13:11:00,36.0,12.0,-100.00,South,180,0.0,2.0,38,-99.99,,,-99.99,,2013-03-10 19:11:00,
2013-03-10 13:53:00,38.0,13.0,-100.00,West,273,6.0,9.0,35,-99.99,,,-99.99,,2013-03-10 19:53:00,
2013-03-10 14:12:00,38.0,13.0,-100.00,West,273,6.0,9.0,35,-99.99,,,-99.99,,2013-03-10 20:12:00,
2013-03-10 14:53:00,39.0,14.0,-100.00,SW,220,9.0,16.0,36,-99.99,,,-99.99,,2013-03-10 20:53:00,
2013-03-10 15:02:00,39.0,14.0,-100.00,SW,220,9.0,16.0,36,-99.99,,,-99.99,,2013-03-10 21:02:00,
2013-03-10 15:12:00,39.0,14.0,-100.00,SW,220,9.0,16.0,36,-99.99,,,-99.99,,2013-03-10 21:12:00,
2013-03-10 15:52:00,38.0,15.0,-100.00,WSW,255,11.0,15.0,39,-99.99,,,-99.99,,2013-03-10 21:52:00,
2013-03-10 16:02:00,38.0,15.0,-100.00,WSW,255,11.0,15.0,39,-99.99,,,-99.99,,2013-03-10 22:02:00,
2013-03-10 16:12:00,38.0,15.0,-100.00,WSW,255,11.0,15.0,39,-99.99,,,-99.99,,2013-03-10 22:12:00,
2013-03-10 16:53:00,34.0,16.0,-100.00,SW,217,9.0,19.0,47,-99.99,,,-99.99,,2013-03-10 22:53:00,
2013-03-10 17:02:00,34.0,16.0,-100.00,SW,217,9.0,19.0,47,-99.99,,,-99.99,,2013-03-10 23:02:00,
2013-03-10 17:12:00,34.0,16.0,-100.00,SW,217,9.0,19.0,47,-99.99,,,-99.99,,2013-03-10 23:12:00,
2013-03-10 17:52:00,32.0,14.0,-100.00,South,176,5.0,10.0,48,-99.99,,,-99.99,,2013-03-10 23:52:00,
2013-03-10 18:02:00,32.0,14.0,-100.00,South,176,5.0,10.0,48,-99.99,,,-99.99,,2013-03-11 00:02:00,
2013-03-10 18:12:00,32.0,14.0,-100.00,South,176,5.0,10.0,48,-99.99,,,-99.99,,2013-03-11 00:12:00,
2013-03-10 18:53:00,29.0,11.0,-100.00,ENE,68,4.0,6.0,46,-99.99,,,-99.99,,2013-03-11 00:53:00,
2013-03-10 19:02:00,29.0,11.0,-100.00,ENE,68,4.0,6.0,46,-99.99,,,-99.99,,2013-03-11 01:02:00,
2013-03-10 19:12:00,29.0,11.0,-100.00,ENE,68,4.0,6.0,46,-99.99,,,-99.99,,2013-03-11 01:12:00,
2013-03-10 19:53:00,27.0,14.0,-100.00,West,276,4.0,7.0,56,-99.99,,,-99.99,,2013-03-11 01:53:00,
2013-03-10 20:02:00,27.0,14.0,-100.00,West,276,4.0,7.0,56,-99.99,,,-99.99,,2013-03-11 02:02:00,
2013-03-10 20:12:00,27.0,14.0,-100.00,West,276,4.0,7.0,56,-99.99,,,-99.99,,2013-03-11 02:12:00,
2013-03-10 20:52:00,26.0,20.0,-100.00,SW,228,3.0,6.0,77,-99.99,,,-99.99,,2013-03-11 02:52:00,
2013-03-10 21:02:00,26.0,20.0,-100.00,SW,228,3.0,6.0,77,-99.99,,,-99.99,,2013-03-11 03:02:00,
2013-03-10 21:12:00,26.0,20.0,-100.00,SW,228,3.0,6.0,77,-99.99,,,-99.99,,2013-03-11 03:12:00,
2013-03-10 21:53:00,26.0,18.0,-100.00,SSW,204,1.0,2.0,71,-99.99,,,-99.99,,2013-03-11 03:53:00,
2013-03-10 22:02:00,26.0,18.0,-100.00,SSW,204,1.0,2.0,71,-99.99,,,-99.99,,2013-03-11 04:02:00,
2013-03-10 22:12:00,26.0,18.0,-100.00,SSW,204,1.0,2.0,71,-99.99,,,-99.99,,2013-03-11 04:12:00,
2013-03-10 22:53:00,27.0,20.0,-100.00,SE,136,3.0,4.0,75,-99.99,,,-99.99,,2013-03-11 04:53:00,
2013-03-10 23:03:00,27.0,20.0,-100.00,SE,136,3.0,4.0,75,-99.99,,,-99.99,,2013-03-11 05:03:00,
2013-03-10 23:11:00,27.0,20.0,-100.00,SE,136,3.0,4.0,75,-99.99,,,-99.99,,2013-03-11 05:11:00,
2013-03-10 23:52:00,27.0,20.0,-100.00,SW,220,4.0,9.0,74,-99.99,,,-99.99,,2013-03-11 05:52:00,